Find Starlink 32426

NORAD ID: 61681 Int'l Des: 2024-193 Owner: SPXS Country: US Constellation: starlink operational
LEOCIRCULAR

リアルタイム位置

3D地球を読み込み中...

Starlink 32426について

説明を読み込み中...

次回通過

Passes for default location (London). Set your location on the main map for personalized predictions.

高度履歴

Loading altitude history...

軌道要素

1 61681U 24193W 26123.88922456 .00000772 00000-0 38196-4 0 9996
2 61681 53.1592 194.9091 0001205 79.1095 281.0042 15.30192281 84978
Epoch: May 3, 2026 • Age: 12 hours

現在のステータス

高度 490.9 km
速度 7.62 km/s
衛星直下点 -44.12°S, 56.17°E
打ち上げ日 Oct 26, 2024
運用期間 1.5 years
タイプ internet

技術仕様

分類 Payload
質量 730.00 kg
乾燥質量 700.00 kg
総質量 730.00 kg
長さ 0.30 m
直径 4.10 m
スパン 29.00 m
形状 Box + pan
製造者 SPXS
バスタイプ Starlink V2M
フェーズステータス In Orbit
所有者/国 SPXS/US

Most Searched